Back to catalog

SL-8 R/B

AliveLEO
NORAD 15483·ROCKET BODY·🇷🇺 Russia

Launched Jan 17, 1985 from Plesetsk Cosmodrome

Loading…

Next Passes (next 24 hours)

TLE

FreshSource: Space-Track

Epoch: Sep 14, 2026, 01:37 UTC

1 15483U 85006B   26257.06740686  .00000025  00000-0  16977-4 0  9990
2 15483  74.0432 274.5006 0017533 145.9444 244.9390 14.37863300181104

Track SL-8 R/B in real time with AllMySat

Download on the App Store